Gene Autry, OK

4:41 AM CST on January 18, 2017 (GMT -0600)
Ardmore Municipal

Weather History for KADM - January, 2013

Change the Weather History Date:

Thursday, January 10, 2013

  Actual Average Record
Temperature  
Mean Temperature 54 °F -  
Max Temperature 59 °F 49 °F 73 °F (2005)
Min Temperature 48 °F 32 °F 21 °F (2015)
Degree Days  
Heating Degree Days 12    
Growing Degree Days 4 (Base 50)    
Moisture  
Dew Point 53 °F    
Average Humidity 98    
Maximum Humidity 100    
Minimum Humidity 87    
Precipitation  
Precipitation 0.05 in - - ()
Sea Level Pressure  
Sea Level Pressure 29.95 in    
Wind  
Wind Speed 9 mph (SE)    
Max Wind Speed 13 mph    
Max Gust Speed 17 mph    
Visibility 7 miles    
Events Rain    
Averages and records for this station are not official NWS values.
T = Trace of Precipitation, MM = Missing Value Source: NWS Daily Summary

Daily Weather History Graph

Daily Weather History Graph

Search for Another Location

Airport or City:

Trip Planner

Search our weather history database for the weather conditions in past years. The results will help you decide how hot, cold, wet, or windy it might be!

Date:

Astronomy

Jan. 10, 2013 Rise Set
Actual Time 7:34 AM CST 5:37 PM CST
Civil Twilight 7:07 AM CST 6:04 PM CST
Nautical Twilight 6:36 AM CST 6:35 PM CST
Astronomical Twilight 6:06 AM CST 7:05 PM CST
Moon 6:15 AM CST (1/10) 4:45 PM CST (1/10)
Length of Visible Light 10h 57m
Length of Day
10h 02m
Waning Crescent, 2% of the Moon is Illuminated
Jan 10
Waning Crescent
Jan 11
New
Jan 18
First Quarter
Jan 26
Full
Feb 3
Last Quarter

Hourly Weather History & Observations

Time (CST) Temp. Dew Point Humidity Pressure Visibility Wind Dir Wind Speed Gust Speed Precip Events Conditions
12:15 AM 53.6 °F 53.6 °F 100% 30.05 in 10.0 mi East 8.1 mph - N/A   Unknown
12:35 AM 53.6 °F 53.6 °F 100% 30.05 in 5.0 mi East 8.1 mph - N/A Rain Rain
12:55 AM 53.6 °F 53.6 °F 100% 30.04 in 7.0 mi East 9.2 mph - N/A   Light Drizzle
2:15 AM 53.6 °F 53.6 °F 100% 30.00 in 7.0 mi East 12.7 mph - 0.01 in Rain Rain
2:35 AM 53.6 °F 53.6 °F 100% 29.99 in 7.0 mi ESE 10.4 mph 16.1 mph 0.05 in Rain Rain
2:55 AM 53.6 °F 53.6 °F 100% 29.98 in 4.0 mi ESE 11.5 mph 17.3 mph 0.05 in Rain Light Rain
3:15 AM 53.6 °F 53.6 °F 100% 29.97 in 4.0 mi East 11.5 mph 16.1 mph N/A Rain Light Rain
3:35 AM 53.6 °F 53.6 °F 100% 29.97 in 7.0 mi ESE 12.7 mph - N/A   Unknown
3:55 AM 53.6 °F 53.6 °F 100% 29.96 in 7.0 mi ESE 11.5 mph 17.3 mph N/A   Unknown
4:15 AM 53.6 °F 53.6 °F 100% 29.96 in 3.0 mi ESE 10.4 mph - N/A   Mist
4:35 AM 53.6 °F 53.6 °F 100% 29.94 in 4.0 mi ESE 12.7 mph 17.3 mph N/A Rain Light Rain
4:55 AM 53.6 °F 53.6 °F 100% 29.94 in 4.0 mi ESE 10.4 mph - N/A   Light Drizzle
5:15 AM 53.6 °F 53.6 °F 100% 29.93 in 4.0 mi ESE 8.1 mph - N/A   Mist
5:35 AM 53.6 °F 53.6 °F 100% 29.92 in 3.0 mi ESE 6.9 mph - N/A   Drizzle
8:55 AM 55.4 °F 55.4 °F 100% 29.92 in 10.0 mi SSE 5.8 mph - N/A   Overcast
9:55 AM 57.2 °F 57.2 °F 100% 29.90 in 10.0 mi SSE 6.9 mph - N/A   Mostly Cloudy
10:13 AM 57.2 °F 57.2 °F 100% 29.90 in 10.0 mi SSE 6.9 mph - N/A   Scattered Clouds
10:55 AM 59.0 °F 59.0 °F 100% 29.90 in 10.0 mi South 8.1 mph - N/A   Mostly Cloudy
11:55 AM 59.0 °F 57.2 °F 94% 29.87 in 10.0 mi SSE 8.1 mph - N/A   Mostly Cloudy
10:35 PM 50.0 °F 46.4 °F 87% 29.90 in 10.0 mi SSW 5.8 mph - N/A   Clear
10:55 PM 48.2 °F 46.4 °F 93% 29.91 in 10.0 mi SSW 6.9 mph - N/A   Clear
11:15 PM 50.0 °F 46.4 °F 87% 29.91 in 10.0 mi SSW 8.1 mph - N/A   Clear
11:35 PM 50.0 °F 46.4 °F 87% 29.91 in 10.0 mi South 8.1 mph - N/A   Clear
11:55 PM 48.2 °F 46.4 °F 93% 29.91 in 10.0 mi South 5.8 mph - N/A   Clear